User: anonymous   Login
Location: Unspecified
(0.0000°N, 0.0000°E)
Time: 13:47:02
(UTC+00:00)
Language:

STARS-C - Orbit

View from above orbital plane
View from above orbital plane
View from above satellite
View from above satellite

Ground track
Ground track

The orbit data is extracted from the following two-line orbital elements,

1 41895U 98067KR  17111.65813514 +.00026047 +00000-0 +33495-3 0  9997
2 41895 051.6397 318.0650 0005397 112.6190 247.5374 15.58881658019161
Epoch (UTC): 21 April 2017 15:47:42
Eccentricity: 0.0005397
inclination: 51.6397°
perigee height: 387 km
apogee height: 394 km
right ascension of ascending node: 318.0650°
argument of perigee: 112.6190°
revolutions per day: 15.58881658
mean anomaly at epoch: 247.5374°
orbit number at epoch: 1916

The dashed part of the orbit path shows where the satellite is in the earth's shadow,  

DLR